Hourly Weather Bolshie Motykaly

Today, 20 June, Sunday

Time Temperature Precipitation Wind Pressure Humidity
00:00 +20°C° 0 mm 2 mps 751 mmHg 88%
01:00 +19°C° 0 mm 2 mps 751 mmHg 90%
02:00 +19°C° 0 mm 2 mps 751 mmHg 91%
03:00 +19°C° 0 mm 2 mps 751 mmHg 91%
04:00 +19°C° 0 mm 2 mps 751 mmHg 92%
05:00 +18°C° 0 mm 2 mps 750 mmHg 92%
06:00 +20°C° 0 mm 2 mps 750 mmHg 86%
07:00 +22°C° 0 mm 3 mps 750 mmHg 80%
08:00 +25°C° 0 mm 3 mps 750 mmHg 73%
09:00 +26°C° 0 mm 4 mps 750 mmHg 69%
10:00 +27°C° 0 mm 4 mps 750 mmHg 65%
11:00 +28°C° 0 mm 5 mps 750 mmHg 61%
12:00 +29°C° 0.2 mm 5 mps 750 mmHg 60%
13:00 +29°C° 0.2 mm 5 mps 750 mmHg 58%
14:00 +29°C° 0 mm 5 mps 750 mmHg 61%
15:00 +29°C° 0.2 mm 4 mps 749 mmHg 63%
16:00 +29°C° 0.2 mm 4 mps 749 mmHg 64%
17:00 +28°C° 0.2 mm 3 mps 749 mmHg 65%
18:00 +27°C° 0.4 mm 3 mps 748 mmHg 72%
19:00 +25°C° 0.4 mm 3 mps 748 mmHg 79%
20:00 +22°C° 0.4 mm 4 mps 748 mmHg 85%
21:00 +22°C° 1 mm 3 mps 748 mmHg 88%
22:00 +21°C° 1 mm 3 mps 748 mmHg 90%
23:00 +20°C° 1 mm 2 mps 748 mmHg 92%

Tomorrow, 21 June, Monday

Time Temperature Precipitation Wind Pressure Humidity
00:00 +20°C° 0 mm 2 mps 748 mmHg 92%
01:00 +20°C° 0 mm 2 mps 748 mmHg 93%
02:00 +20°C° 0 mm 3 mps 748 mmHg 93%
03:00 +19°C° 0 mm 3 mps 748 mmHg 93%
04:00 +19°C° 0 mm 3 mps 747 mmHg 93%
05:00 +19°C° 0 mm 3 mps 747 mmHg 93%
06:00 +20°C° 0 mm 4 mps 747 mmHg 89%
07:00 +22°C° 0 mm 4 mps 747 mmHg 85%
08:00 +23°C° 0 mm 4 mps 747 mmHg 81%
09:00 +26°C° 0 mm 5 mps 747 mmHg 74%
10:00 +27°C° 0 mm 5 mps 747 mmHg 66%
11:00 +28°C° 0 mm 5 mps 747 mmHg 59%
12:00 +28°C° 0 mm 5 mps 747 mmHg 60%
13:00 +28°C° 0 mm 4 mps 746 mmHg 62%
14:00 +28°C° 0 mm 4 mps 746 mmHg 63%
15:00 +28°C° 0.7 mm 4 mps 746 mmHg 65%
16:00 +28°C° 0.7 mm 4 mps 746 mmHg 67%
17:00 +28°C° 0.7 mm 4 mps 746 mmHg 69%
18:00 +27°C° 0.4 mm 3 mps 746 mmHg 74%
19:00 +25°C° 0.4 mm 3 mps 746 mmHg 79%
20:00 +24°C° 0.4 mm 3 mps 745 mmHg 84%
21:00 +24°C° 0 mm 3 mps 745 mmHg 86%
22:00 +22°C° 0 mm 3 mps 746 mmHg 88%
23:00 +21°C° 0 mm 3 mps 746 mmHg 90%

Day after tomorrow, 22 June, Tuesday

Time Temperature Precipitation Wind Pressure Humidity
00:00 +21°C° 0 mm 3 mps 746 mmHg 91%
01:00 +20°C° 0 mm 3 mps 746 mmHg 92%
02:00 +20°C° 0 mm 3 mps 746 mmHg 92%
03:00 +20°C° 0 mm 3 mps 746 mmHg 93%
04:00 +20°C° 0 mm 3 mps 746 mmHg 93%
05:00 +19°C° 0 mm 3 mps 746 mmHg 94%
06:00 +21°C° 0 mm 3 mps 746 mmHg 88%
07:00 +24°C° 0 mm 3 mps 746 mmHg 82%
08:00 +25°C° 0 mm 4 mps 747 mmHg 76%
09:00 +27°C° 0 mm 4 mps 747 mmHg 70%
10:00 +28°C° 0 mm 4 mps 747 mmHg 63%
11:00 +29°C° 0 mm 5 mps 747 mmHg 57%
12:00 +30°C° 0 mm 4 mps 747 mmHg 54%
13:00 +32°C° 0 mm 4 mps 747 mmHg 51%
14:00 +32°C° 0 mm 4 mps 747 mmHg 48%
15:00 +32°C° 0 mm 4 mps 747 mmHg 50%
16:00 +32°C° 0 mm 4 mps 747 mmHg 52%
17:00 +32°C° 0 mm 4 mps 747 mmHg 54%
18:00 +30°C° 0 mm 3 mps 747 mmHg 60%
19:00 +28°C° 0 mm 3 mps 747 mmHg 67%
20:00 +27°C° 0 mm 3 mps 747 mmHg 74%
21:00 +26°C° 0 mm 2 mps 747 mmHg 76%
22:00 +25°C° 0 mm 2 mps 747 mmHg 79%
23:00 +24°C° 0 mm 2 mps 748 mmHg 81%

23 June, Wednesday

Time Temperature Precipitation Wind Pressure Humidity
00:00 +23°C° 0 mm 1 mps 748 mmHg 83%
01:00 +23°C° 0 mm 1 mps 748 mmHg 85%
02:00 +22°C° 0 mm 1 mps 748 mmHg 87%
03:00 +22°C° 0 mm 1 mps 748 mmHg 87%
04:00 +21°C° 0 mm 2 mps 748 mmHg 88%
05:00 +21°C° 0 mm 2 mps 748 mmHg 88%
06:00 +23°C° 0.4 mm 2 mps 749 mmHg 85%
07:00 +25°C° 0.4 mm 2 mps 749 mmHg 83%
08:00 +26°C° 0.4 mm 3 mps 749 mmHg 80%
09:00 +27°C° 0.4 mm 3 mps 749 mmHg 75%
10:00 +28°C° 0.4 mm 2 mps 749 mmHg 70%
11:00 +30°C° 0.4 mm 2 mps 749 mmHg 66%
12:00 +30°C° 0.1 mm 2 mps 749 mmHg 61%
13:00 +31°C° 0.1 mm 2 mps 750 mmHg 57%
14:00 +32°C° 0.1 mm 2 mps 750 mmHg 52%
15:00 +32°C° 0.1 mm 2 mps 750 mmHg 53%
16:00 +32°C° 0.1 mm 2 mps 750 mmHg 53%
17:00 +32°C° 0.1 mm 1 mps 750 mmHg 53%
18:00 +31°C° 0 mm 1 mps 750 mmHg 58%
19:00 +30°C° 0 mm 1 mps 750 mmHg 64%
20:00 +28°C° 0 mm 1 mps 750 mmHg 70%
21:00 +27°C° 0.4 mm 1 mps 750 mmHg 73%
22:00 +26°C° 0.4 mm 1 mps 750 mmHg 76%
23:00 +25°C° 0.4 mm 1 mps 750 mmHg 79%

24 June, Thursday

Time Temperature Precipitation Wind Pressure Humidity
00:00 +25°C° 0.2 mm 1 mps 750 mmHg 80%
01:00 +24°C° 0.2 mm 1 mps 750 mmHg 82%
02:00 +24°C° 0.2 mm 1 mps 750 mmHg 84%
03:00 +24°C° 0.1 mm 1 mps 750 mmHg 85%
04:00 +24°C° 0.1 mm 1 mps 750 mmHg 86%
05:00 +22°C° 0.1 mm 0 mps 750 mmHg 87%
06:00 +23°C° 0 mm 0 mps 750 mmHg 83%
07:00 +24°C° 0 mm 0 mps 750 mmHg 79%
08:00 +25°C° 0 mm 0 mps 750 mmHg 75%
09:00 +29°C° 0 mm 1 mps 750 mmHg 70%
10:00 +30°C° 0 mm 1 mps 750 mmHg 64%
11:00 +31°C° 0 mm 2 mps 750 mmHg 59%
12:00 +32°C° 0.1 mm 2 mps 750 mmHg 56%
13:00 +34°C° 0.1 mm 2 mps 750 mmHg 52%
14:00 +34°C° 0.1 mm 3 mps 749 mmHg 49%
15:00 +34°C° 0 mm 2 mps 749 mmHg 52%
16:00 +32°C° 0 mm 2 mps 749 mmHg 54%
17:00 +32°C° 0 mm 2 mps 749 mmHg 57%
18:00 +30°C° 0.6 mm 2 mps 748 mmHg 63%
19:00 +29°C° 0.6 mm 2 mps 748 mmHg 70%
20:00 +27°C° 0.6 mm 2 mps 748 mmHg 76%
21:00 +26°C° 0.3 mm 2 mps 748 mmHg 79%
22:00 +25°C° 0.3 mm 2 mps 748 mmHg 83%
23:00 +24°C° 0.3 mm 2 mps 748 mmHg 86%

25 June, Friday

Time Temperature Precipitation Wind Pressure Humidity
00:00 +22°C° 2.3 mm 3 mps 748 mmHg 88%
01:00 +21°C° 2.3 mm 3 mps 748 mmHg 91%
02:00 +19°C° 2.3 mm 3 mps 748 mmHg 93%
03:00 +19°C° 0.8 mm 3 mps 748 mmHg 92%
04:00 +20°C° 0.8 mm 4 mps 747 mmHg 92%
05:00 +20°C° 0.8 mm 4 mps 747 mmHg 92%
06:00 +21°C° 0.1 mm 4 mps 747 mmHg 89%
07:00 +22°C° 0.1 mm 3 mps 747 mmHg 86%
08:00 +25°C° 0.1 mm 3 mps 747 mmHg 83%
09:00 +27°C° 0 mm 3 mps 746 mmHg 77%
10:00 +28°C° 0 mm 3 mps 746 mmHg 71%
11:00 +30°C° 0 mm 3 mps 746 mmHg 65%
12:00 +31°C° 0.2 mm 3 mps 746 mmHg 63%
13:00 +33°C° 0.2 mm 4 mps 746 mmHg 61%
14:00 +34°C° 0.2 mm 4 mps 746 mmHg 59%
15:00 +32°C° 0.5 mm 4 mps 745 mmHg 63%
16:00 +30°C° 0.5 mm 5 mps 745 mmHg 68%
17:00 +29°C° 0.5 mm 5 mps 744 mmHg 73%
18:00 +28°C° 1.4 mm 4 mps 745 mmHg 78%
19:00 +26°C° 1.4 mm 4 mps 745 mmHg 83%
20:00 +24°C° 1.4 mm 3 mps 746 mmHg 87%
21:00 +22°C° 0.3 mm 3 mps 746 mmHg 88%
22:00 +22°C° 0.3 mm 3 mps 746 mmHg 89%
23:00 +21°C° 0.3 mm 4 mps 747 mmHg 90%
Show more